Regional Weather Roundup
Issued by NWS Little Rock, AR

Home | Current Version | Previous Version | Graphics & Text | Print | Product List | Glossary On
Versions: 1 2 3 4 5 6 7 8 9 10 11 12 13 14 15 16 17 18 19 20 21 22 23 24 25 26 27 28 29 30 31 32 33 34 35 36 37 38 39 40 41 42 43 44 45 46 47 48 49 50
000
ASUS44 KLZK 282205
RWRLZK

WEATHER ROUNDUP FOR ARKANSAS
NATIONAL WEATHER SERVICE LITTLE ROCK AR
500 PM CDT MON JUL 28 2014

NOTE: "FAIR" INDICATES FEW OR NO CLOUDS BELOW 12,000 FEET WITH NO
SIGNIFICANT WEATHER AND/OR OBSTRUCTIONS TO VISIBILITY.

ARZ001-003-010-029-282300-
NORTHWEST ARKANSAS

CITY           SKY/WX    TMP DP  RH WIND       PRES   REMARKS
FAYETTEVILLE   SUNNY     84  59  42 NW16      30.14F
FORT SMITH     PTSUNNY   87  56  34 NW13      30.09F HX  85
HARRISON       SUNNY     83  56  39 NW9       30.13F
BENTONVILLE    SUNNY     84  57  39 NW10G16   30.16F
ROGERS         MOSUNNY   84  54  35 NW9G17    30.16F
SILOAM SPGS    SUNNY     81  57  44 N10       30.16F
HIGHFILL       MOSUNNY   85  58  39 N13       30.14F
SPRINGDALE     MOSUNNY   86  57  37 NW12      30.16F HX  85
$$

ARZ004-005-016-282300-
NORTH CENTRAL ARKANSAS

CITY           SKY/WX    TMP DP  RH WIND       PRES   REMARKS
BATESVILLE     MOSUNNY   84  63  48 NW8       30.06F HX  85
FLIPPIN        SUNNY     86  57  37 N10G18    30.10F HX  85
MTN HOME       MOSUNNY   84  59  42 VRB5      30.09F
$$

ARZ040-041-282300-
WEST CENTRAL ARKANSAS

CITY           SKY/WX    TMP DP  RH WIND       PRES   REMARKS
MENA           CLOUDY    84  63  48 NW5       30.12F HX  85
MOUNT IDA      PTSUNNY   82  64  54 VRB3      30.08F
$$

ARZ009-017-025-026-028-282300-
NORTHEAST ARKANSAS

CITY           SKY/WX    TMP DP  RH WIND       PRES   REMARKS
CORNING        LGT RAIN  84  63  48 NW12      30.04F HX  85
JONESBORO      MOSUNNY   84  63  49 N9        30.04F HX  85
NEWPORT        MOSUNNY   86  63  45 NW12      30.06S HX  87
WALNUT RIDGE   PTSUNNY   84  61  45 N7        30.04F
BLYTHEVILLE    MOSUNNY   84  65  52 N9        30.03F HX  86
$$

ARZ022-023-033-042-044-282300-
CENTRAL ARKANSAS

CITY           SKY/WX    TMP DP  RH WIND       PRES   REMARKS
LITTLE ROCK    MOSUNNY   88  60  38 N8        30.06F HX  87
N LITTLE ROCK  MOSUNNY   85  66  52 N7        30.06F HX  87
JACKSONVILLE   SUNNY     87  63  44 NW12      30.06F HX  87
SEARCY         SUNNY     85  64  49 N8        30.07S HX  86
HOT SPRINGS    MOSUNNY   86  62  44 VRB6      30.08F HX  86
RUSSELLVILLE   MOSUNNY   90  61  37 NW10      30.07F HX  90
CLINTON        FAIR      88  63  42 NW7       30.08F HX  88
$$

ARZ036-282300-
EAST ARKANSAS

CITY           SKY/WX    TMP DP  RH WIND       PRES   REMARKS
WEST MEMPHIS   PTSUNNY   86  66  51 N10       30.03S HX  88
$$

ARZ050-053-066-070-073-282300-
SOUTHWEST ARKANSAS

CITY           SKY/WX    TMP DP  RH WIND       PRES   REMARKS
ARKADELPHIA    FAIR      87  66  49 N6        30.05F HX  89
CAMDEN         SUNNY     90  64  43 N7        30.05F HX  91
TEXARKANA      CLOUDY    91  68  46 N9        30.05F HX  95
EL DORADO      SUNNY     90  67  46 N9        30.05F HX  93
DE QUEEN       PTSUNNY   89  60  37 N9        30.05F HX  89
$$

ARZ056-057-069-282300-
SOUTHEAST ARKANSAS

CITY           SKY/WX    TMP DP  RH WIND       PRES   REMARKS
PINE BLUFF     SUNNY     87  62  43 N12G18    30.05F HX  87
STUTTGART      SUNNY     84  63  48 N13       30.07S HX  85
MONTICELLO     SUNNY     88  63  43 N9        30.04F HX  89

$$




USA.gov is the U.S. government's official web portal to all federal, state and local government web resources and services.